KC7O Weather Reports


Display with metric or nautical units.
time (UTC)temp
F
wind
direction
speed
MPH
gust
MPH
rain 1hr
in
rain 24hr
in
rain mn
in
humidity
%
barometer
mb
20260905044821 68 234 0.0 0.0 0.00 0.00 0.00 78 1011.9
20260905044341 68 234 0.0 0.0 0.00 0.00 0.00 77 1011.9
20260905043842 69 234 0.0 0.0 0.00 0.00 0.00 78 1011.8
20260905043343 68 234 0.0 0.0 0.00 0.00 0.00 76 1011.7
20260905042843 69 234 0.0 0.0 0.00 0.00 0.00 75 1011.5
20260905042344 69 234 0.0 0.0 0.00 0.00 0.00 75 1011.4
20260905041824 70 234 0.0 0.0 0.00 0.00 0.00 75 1011.4
20260905041322 70 234 0.0 0.0 0.00 0.00 0.00 74 1011.3
20260905040822 70 234 0.0 0.0 0.00 0.00 0.00 74 1011.2
20260905040320 70 234 0.0 0.0 0.00 0.00 0.00 74 1011.2
20260905035857 70 236 0.0 0.0 0.00 0.00 0.00 72 1011.2
20260905035358 71 236 0.0 0.0 0.00 0.00 0.00 70 1011.2
20260905034835 71 236 0.0 0.0 0.00 0.00 0.00 68 1011.1
20260905034335 71 236 0.0 0.0 0.00 0.00 0.00 68 1011.0
20260905033855 71 236 0.0 0.0 0.00 0.00 0.00 67 1011.0
20260905033334 72 236 0.0 0.0 0.00 0.00 0.00 67 1010.9
20260905032819 72 236 0.0 0.0 0.00 0.00 0.00 67 1010.8
20260905032347 72 236 0.0 0.0 0.00 0.00 0.00 66 1010.8
20260905031836 72 236 0.0 0.0 0.00 0.00 0.00 66 1010.8
20260905031358 73 236 0.0 0.0 0.00 0.00 0.00 64 1010.8
20260905030855 73 236 0.0 0.0 0.00 0.00 0.00 64 1010.7
20260905030335 73 236 0.0 0.0 0.00 0.00 0.00 65 1010.7
20260905025832 73 236 0.0 0.0 0.00 0.00 0.00 65 1010.7
20260905025332 74 236 0.0 0.0 0.00 0.00 0.00 63 1010.6
20260905024832 74 235 0.0 0.0 0.00 0.00 0.00 63 1010.6
20260905024335 74 216 0.0 0.0 0.00 0.00 0.00 62 1010.5
20260905023837 74 216 0.0 0.0 0.00 0.00 0.00 61 1010.5
20260905023337 74 241 0.0 0.0 0.00 0.00 0.00 60 1010.5
20260905022856 75 241 0.0 0.0 0.00 0.00 0.00 58 1010.5
20260905022335 75 241 0.0 0.0 0.00 0.00 0.00 58 1010.5
20260905021833 76 241 0.0 0.0 0.00 0.00 0.00 57 1010.6
20260905021334 76 241 0.0 0.0 0.00 0.00 0.00 56 1010.6
20260905020833 77 241 0.0 0.0 0.00 0.00 0.00 56 1010.7
20260905020351 77 202 0.0 0.0 0.00 0.00 0.00 55 1010.6
20260905015832 77 197 0.0 0.0 0.00 0.00 0.00 54 1010.6
20260905015329 77 223 0.0 1.0 0.00 0.00 0.00 53 1010.6
20260905014348 78 145 0.0 2.0 0.00 0.00 0.00 54 1010.7
20260905013827 79 236 0.0 4.0 0.00 0.00 0.00 53 1010.6
20260905013333 79 183 1.0 4.0 0.00 0.00 0.00 54 1010.7
20260905012833 79 276 2.0 4.0 0.00 0.00 0.00 53 1010.8
20260905012353 80 142 1.0 5.0 0.00 0.00 0.00 53 1010.7
20260905011835 80 240 2.0 5.0 0.00 0.00 0.00 53 1010.7
20260905011334 80 212 1.0 3.0 0.00 0.00 0.00 51 1010.8
20260905010332 80 188 2.0 4.0 0.00 0.00 0.00 49 1010.8
20260905005833 80 162 2.0 4.0 0.00 0.00 0.00 49 1010.8
20260905005333 81 141 1.0 4.0 0.00 0.00 0.00 49 1010.8
20260905004832 81 183 1.0 4.0 0.00 0.00 0.00 48 1010.8
20260905004350 81 191 0.0 4.0 0.00 0.00 0.00 48 1010.9
20260905003832 81 146 1.0 6.0 0.00 0.00 0.00 48 1010.9
20260905003351 81 176 2.0 6.0 0.00 0.00 0.00 47 1010.9
20260905002831 82 146 2.0 5.0 0.00 0.00 0.00 46 1010.9
20260905002333 81 231 1.0 5.0 0.00 0.00 0.00 46 1010.8
20260905001831 82 269 2.0 4.0 0.00 0.00 0.00 45 1010.7
20260905001334 82 228 2.0 5.0 0.00 0.00 0.00 45 1010.7
20260905000836 82 274 2.0 6.0 0.00 0.00 0.00 43 1010.7
20260905000320 82 193 3.0 6.0 0.00 0.00 0.00 44 1010.7
20260904235838 82 250 1.0 6.0 0.00 0.00 0.00 41 1010.7
20260904235358 82 271 2.0 6.0 0.00 0.00 0.00 41 1010.6
20260904234835 82 258 1.0 6.0 0.00 0.00 0.00 41 1010.6
20260904234336 82 176 2.0 6.0 0.00 0.00 0.00 40 1010.7
20260904233835 82 283 3.0 6.0 0.00 0.00 0.00 39 1010.6
20260904233334 82 158 2.0 6.0 0.00 0.00 0.00 40 1010.7
20260904232834 82 165 2.0 5.0 0.00 0.00 0.00 40 1010.7
20260904232334 82 274 2.0 6.0 0.00 0.00 0.00 41 1010.8
20260904231853 82 262 3.0 6.0 0.00 0.00 0.00 41 1010.7
20260904231334 83 243 2.0 7.0 0.00 0.00 0.00 42 1010.7
20260904230833 83 245 0.0 7.0 0.00 0.00 0.00 43 1010.6
20260904230335 83 219 2.0 7.0 0.00 0.00 0.00 44 1010.7
20260904225833 83 186 3.0 7.0 0.00 0.00 0.00 44 1010.7
20260904225336 83 166 3.0 6.0 0.00 0.00 0.00 45 1010.7
20260904224834 83 210 4.0 6.0 0.00 0.00 0.00 45 1010.8
20260904223836 83 174 2.0 6.0 0.00 0.00 0.00 43 1010.8
20260904223334 83 150 3.0 6.0 0.00 0.00 0.00 44 1010.8
20260904222833 83 129 2.0 6.0 0.00 0.00 0.00 43 1010.9
20260904222353 83 273 2.0 7.0 0.00 0.00 0.00 43 1010.9
20260904221832 83 279 2.0 7.0 0.00 0.00 0.00 43 1010.9
20260904221351 83 319 1.0 3.0 0.00 0.00 0.00 43 1010.9
20260904220832 83 283 0.0 4.0 0.00 0.00 0.00 43 1010.9
20260904220329 83 278 2.0 8.0 0.00 0.00 0.00 43 1010.9
20260904215832 83 205 2.0 8.0 0.00 0.00 0.00 42 1011.0
20260904215333 84 210 2.0 8.0 0.00 0.00 0.00 43 1011.0
20260904214833 84 248 3.0 8.0 0.00 0.00 0.00 42 1011.0
20260904214328 84 224 0.0 6.0 0.00 0.00 0.00 42 1011.0
20260904213847 84 174 1.0 6.0 0.00 0.00 0.00 43 1011.1
20260904213348 83 151 3.0 6.0 0.00 0.00 0.00 44 1011.1
20260904212828 83 25 1.0 6.0 0.00 0.00 0.00 44 1011.1
20260904212333 84 169 3.0 6.0 0.00 0.00 0.00 45 1011.1
20260904211858 84 238 4.0 6.0 0.00 0.00 0.00 44 1011.1
20260904211337 83 190 2.0 4.0 0.00 0.00 0.00 46 1011.1
20260904210836 82 284 2.0 5.0 0.00 0.00 0.00 46 1011.1
20260904210333 83 287 1.0 6.0 0.00 0.00 0.00 46 1011.2
20260904205851 82 144 2.0 6.0 0.00 0.00 0.00 46 1011.2
20260904205329 83 267 1.0 5.0 0.00 0.00 0.00 46 1011.2
20260904204831 83 207 2.0 5.0 0.00 0.00 0.00 47 1011.3
20260904203830 83 286 2.0 5.0 0.00 0.00 0.00 47 1011.4
20260904203331 83 172 1.0 5.0 0.00 0.00 0.00 48 1011.4
20260904202830 83 219 0.0 4.0 0.00 0.00 0.00 49 1011.5
20260904202351 82 242 1.0 5.0 0.00 0.00 0.00 50 1011.4
20260904201826 82 278 3.0 8.0 0.00 0.00 0.00 49 1011.4
20260904201326 82 227 2.0 8.0 0.00 0.00 0.00 50 1011.4
20260904200846 82 274 2.0 5.0 0.00 0.00 0.00 52 1011.5
20260904200344 81 222 2.0 5.0 0.00 0.00 0.00 51 1011.5
20260904195820 81 281 2.0 5.0 0.00 0.00 0.00 53 1011.6
20260904195338 80 163 1.0 5.0 0.00 0.00 0.00 54 1011.6
20260904194858 80 96 0.0 3.0 0.00 0.00 0.00 55 1011.7
20260904194338 80 162 2.0 4.0 0.00 0.00 0.00 56 1011.8
20260904193821 80 265 1.0 4.0 0.00 0.00 0.00 54 1011.9
20260904193340 81 136 2.0 4.0 0.00 0.00 0.00 53 1012.0
20260904192854 80 141 1.0 7.0 0.00 0.00 0.00 53 1012.1
20260904191831 80 161 2.0 6.0 0.00 0.00 0.00 54 1012.3
20260904191335 79 264 2.0 6.0 0.00 0.00 0.00 57 1012.4
20260904190835 79 135 2.0 6.0 0.00 0.00 0.00 58 1012.4
20260904190335 79 194 1.0 5.0 0.00 0.00 0.00 59 1012.4
20260904185855 79 145 2.0 6.0 0.00 0.00 0.00 58 1012.4
20260904185332 79 161 3.0 6.0 0.00 0.00 0.00 57 1012.5
20260904184831 79 179 0.0 5.0 0.00 0.00 0.00 60 1012.5
20260904184351 78 238 2.0 5.0 0.00 0.00 0.00 60 1012.6
20260904183834 78 271 2.0 5.0 0.00 0.00 0.00 61 1012.6
20260904183332 78 172 1.0 4.0 0.00 0.00 0.00 62 1012.6
20260904182834 78 262 1.0 4.0 0.00 0.00 0.00 61 1012.7
20260904182330 77 167 1.0 3.0 0.00 0.00 0.00 63 1012.6
20260904181830 77 25 0.0 5.0 0.00 0.00 0.00 65 1012.6
20260904181328 76 127 1.0 6.0 0.00 0.00 0.00 65 1012.7
20260904180826 75 180 2.0 6.0 0.00 0.00 0.00 66 1012.7
20260904180324 75 215 3.0 6.0 0.00 0.00 0.00 66 1012.6
20260904175827 75 169 4.0 5.0 0.00 0.00 0.00 65 1012.7
20260904175327 76 201 2.0 4.0 0.00 0.00 0.00 65 1012.8
20260904174828 75 172 0.0 4.0 0.00 0.00 0.00 67 1012.8
20260904174329 75 252 2.0 4.0 0.00 0.00 0.00 66 1012.8
20260904173828 75 143 2.0 4.0 0.00 0.00 0.00 66 1012.8
20260904173326 74 244 2.0 6.0 0.00 0.00 0.00 68 1012.7
20260904172847 74 205 2.0 6.0 0.00 0.00 0.00 68 1012.7
20260904172326 75 141 1.0 5.0 0.00 0.00 0.00 68 1012.7
20260904171825 74 122 2.0 5.0 0.00 0.00 0.00 69 1012.6
20260904171326 73 183 1.0 6.0 0.00 0.00 0.00 70 1012.6
20260904170824 74 131 3.0 6.0 0.00 0.00 0.00 68 1012.6
20260904170322 74 176 1.0 6.0 0.00 0.00 0.00 69 1012.5
20260904165823 74 245 1.0 4.0 0.00 0.00 0.00 68 1012.5
20260904165324 73 275 2.0 5.0 0.00 0.00 0.00 68 1012.3
20260904164829 73 197 2.0 5.0 0.00 0.00 0.00 68 1012.3
20260904164327 73 165 2.0 3.0 0.00 0.00 0.00 69 1012.3
20260904163846 73 149 1.0 4.0 0.00 0.00 0.00 70 1012.3
20260904163326 72 267 1.0 4.0 0.00 0.00 0.00 70 1012.2
20260904162825 72 162 1.0 3.0 0.00 0.00 0.00 70 1012.2
20260904162326 72 154 2.0 4.0 0.00 0.00 0.00 69 1012.1
20260904161825 72 159 1.0 4.0 0.00 0.00 0.00 71 1011.9
20260904161345 71 154 1.0 3.0 0.00 0.00 0.00 71 1011.9
20260904160822 71 151 0.0 1.0 0.00 0.00 0.00 72 1011.9
20260904160321 71 143 0.0 2.0 0.00 0.00 0.00 73 1011.9
20260904155840 70 160 0.0 2.0 0.00 0.00 0.00 74 1011.9
20260904155359 71 146 0.0 2.0 0.00 0.00 0.00 75 1012.0
20260904154856 70 141 0.0 2.0 0.00 0.00 0.00 76 1012.0
20260904154335 70 172 0.0 2.0 0.00 0.00 0.00 77 1012.1
20260904153837 70 219 0.0 2.0 0.00 0.00 0.00 77 1012.2
20260904153355 70 197 0.0 2.0 0.00 0.00 0.00 77 1012.2
20260904152833 69 172 0.0 2.0 0.00 0.00 0.00 79 1012.2
20260904152332 69 124 0.0 2.0 0.00 0.00 0.00 79 1012.1
20260904151834 69 127 1.0 2.0 0.00 0.00 0.00 79 1012.2
20260904151332 68 154 1.0 3.0 0.00 0.00 0.00 80 1012.1
20260904150836 68 148 0.0 3.0 0.00 0.00 0.00 80 1012.0
20260904150331 69 147 1.0 2.0 0.00 0.00 0.00 79 1012.0
20260904145830 68 148 0.0 0.0 0.00 0.00 0.00 81 1011.9
20260904145327 68 146 0.0 0.0 0.00 0.00 0.00 82 1011.9
20260904144827 67 146 0.0 1.0 0.00 0.00 0.00 82 1011.9
20260904144324 67 120 0.0 1.0 0.00 0.00 0.00 82 1011.9
20260904143826 67 149 0.0 0.0 0.00 0.00 0.00 84 1011.9
20260904143323 66 150 0.0 0.0 0.00 0.00 0.00 87 1011.8
20260904142823 65 150 0.0 0.0 0.00 0.00 0.00 92 1011.6
20260904142323 64 150 0.0 0.0 0.00 0.00 0.00 92 1011.5
20260904141841 63 150 0.0 0.0 0.00 0.00 0.00 93 1011.4
20260904141337 62 150 0.0 0.0 0.00 0.00 0.00 92 1011.4
20260904140837 61 150 0.0 0.0 0.00 0.00 0.00 92 1011.5
20260904140336 61 150 0.0 0.0 0.00 0.00 0.00 92 1011.5
20260904135835 61 150 0.0 0.0 0.00 0.00 0.00 92 1011.5
20260904135333 60 150 0.0 0.0 0.00 0.00 0.00 92 1011.4
20260904134831 60 150 0.0 0.0 0.00 0.00 0.00 92 1011.4
20260904134335 60 150 0.0 0.0 0.00 0.00 0.00 92 1011.3
20260904133838 60 150 0.0 0.0 0.00 0.00 0.00 92 1011.3
20260904133335 60 150 0.0 0.0 0.00 0.00 0.00 92 1011.3
20260904132837 60 150 0.0 0.0 0.00 0.00 0.00 92 1011.3
20260904132338 61 150 0.0 0.0 0.00 0.00 0.00 92 1011.3
20260904131859 61 150 0.0 0.0 0.00 0.00 0.00 92 1011.4
20260904131338 61 150 0.0 0.0 0.00 0.00 0.00 91 1011.4
20260904130834 61 150 0.0 0.0 0.00 0.00 0.00 91 1011.3
20260904130354 61 150 0.0 0.0 0.00 0.00 0.00 91 1011.3
20260904125833 61 150 0.0 0.0 0.00 0.00 0.00 91 1011.2
20260904125352 61 150 0.0 0.0 0.00 0.00 0.00 91 1011.2
20260904124829 61 150 0.0 0.0 0.00 0.00 0.00 91 1011.2
20260904124330 61 150 0.0 0.0 0.00 0.00 0.00 90 1011.2
20260904123853 61 149 0.0 0.0 0.00 0.00 0.00 90 1011.1
20260904123329 61 149 0.0 0.0 0.00 0.00 0.00 90 1011.0
20260904122847 62 150 0.0 0.0 0.00 0.00 0.00 90 1011.0
20260904122324 62 150 0.0 0.0 0.00 0.00 0.00 89 1011.0
20260904121824 62 150 0.0 0.0 0.00 0.00 0.00 89 1011.0
20260904121321 62 150 0.0 0.0 0.00 0.00 0.00 89 1010.9
20260904120825 63 150 0.0 0.0 0.00 0.00 0.00 89 1010.9
20260904120326 63 150 0.0 0.0 0.00 0.00 0.00 89 1010.9
20260904115846 63 150 0.0 0.0 0.00 0.00 0.00 89 1011.0
20260904115326 63 149 0.0 0.0 0.00 0.00 0.00 88 1011.1
20260904114825 63 150 0.0 0.0 0.00 0.00 0.00 88 1011.1
20260904114343 63 149 0.0 0.0 0.00 0.00 0.00 88 1011.1
20260904113841 64 149 0.0 0.0 0.00 0.00 0.00 88 1011.0
20260904113320 64 149 0.0 0.0 0.00 0.00 0.00 88 1011.0
20260904112823 64 150 0.0 0.0 0.00 0.00 0.00 88 1010.9
20260904112336 64 150 0.0 0.0 0.00 0.00 0.00 88 1010.9
20260904111837 64 150 0.0 0.0 0.00 0.00 0.00 88 1011.0
20260904111338 64 150 0.0 0.0 0.00 0.00 0.00 87 1010.9
20260904110835 64 150 0.0 0.0 0.00 0.00 0.00 88 1011.0
20260904110337 64 150 0.0 0.0 0.00 0.00 0.00 88 1011.0
20260904105819 64 149 0.0 0.0 0.00 0.00 0.00 88 1011.0
20260904105335 64 150 0.0 0.0 0.00 0.00 0.00 88 1011.0
20260904104835 64 149 0.0 0.0 0.00 0.00 0.00 88 1011.0
20260904104354 64 149 0.0 0.0 0.00 0.00 0.00 88 1011.0
20260904103833 64 150 0.0 0.0 0.00 0.00 0.00 88 1011.0
20260904103334 64 149 0.0 0.0 0.00 0.00 0.00 88 1011.0
20260904102853 64 149 0.0 0.0 0.00 0.00 0.00 88 1011.1
20260904102332 64 149 0.0 0.0 0.00 0.00 0.00 89 1011.1
20260904101833 64 149 0.0 0.0 0.00 0.00 0.00 89 1010.9
20260904101352 64 149 0.0 0.0 0.00 0.00 0.00 89 1011.0
20260904100831 64 149 0.0 0.0 0.00 0.00 0.00 89 1010.9
20260904100346 64 149 0.0 0.0 0.00 0.00 0.00 89 1011.0
20260904095825 64 149 0.0 0.0 0.00 0.00 0.00 90 1011.0
20260904095324 64 173 0.0 0.0 0.00 0.00 0.00 90 1010.9
20260904094826 63 173 0.0 1.0 0.00 0.00 0.00 90 1011.0
20260904094325 63 173 0.0 1.0 0.00 0.00 0.00 91 1011.0
20260904093826 63 228 0.0 1.0 0.00 0.00 0.00 91 1011.0
20260904093324 62 228 0.0 0.0 0.00 0.00 0.00 90 1011.0
20260904092825 62 228 0.0 0.0 0.00 0.00 0.00 90 1010.9
20260904092321 62 228 0.0 0.0 0.00 0.00 0.00 90 1010.9
20260904091821 62 228 0.0 0.0 0.00 0.00 0.00 90 1010.9
20260904091339 62 228 0.0 0.0 0.00 0.00 0.00 90 1010.9
20260904090821 62 228 0.0 0.0 0.00 0.00 0.00 90 1010.9
20260904090325 62 228 0.0 0.0 0.00 0.00 0.00 90 1010.8
20260904085824 62 228 0.0 0.0 0.00 0.00 0.00 90 1010.9
20260904085337 62 228 0.0 1.0 0.00 0.00 0.00 91 1010.9
20260904084837 62 228 0.0 1.0 0.00 0.00 0.00 91 1011.0
20260904084333 62 228 0.0 0.0 0.00 0.00 0.00 91 1010.9
20260904083829 62 228 0.0 0.0 0.00 0.00 0.00 90 1011.0
20260904083336 62 228 0.0 0.0 0.00 0.00 0.00 90 1010.9
20260904082830 62 228 0.0 0.0 0.00 0.00 0.00 90 1010.9
20260904082325 63 228 0.0 0.0 0.00 0.00 0.00 90 1010.9
20260904081826 62 228 0.0 0.0 0.00 0.00 0.00 90 1011.0
20260904081320 63 228 0.0 0.0 0.00 0.00 0.00 89 1011.0
20260904080837 63 228 0.0 0.0 0.00 0.00 0.00 89 1011.1
20260904080337 63 228 0.0 0.0 0.00 0.00 0.00 89 1011.1
20260904075835 63 228 0.0 0.0 0.00 0.00 0.00 89 1011.1
20260904075333 63 228 0.0 0.0 0.00 0.00 0.00 89 1011.2
20260904074852 63 228 0.0 0.0 0.00 0.00 0.00 88 1011.1
20260904074329 63 228 0.0 0.0 0.00 0.00 0.00 88 1011.1
20260904073828 63 228 0.0 0.0 0.00 0.00 0.00 88 1011.1
20260904073331 63 228 0.0 0.0 0.00 0.00 0.00 88 1011.1
20260904072829 63 228 0.0 0.0 0.00 0.00 0.00 88 1011.1
20260904072350 63 228 0.0 0.0 0.00 0.00 0.00 88 1011.1
20260904071847 63 228 0.0 0.0 0.00 0.00 0.00 87 1011.1
20260904071326 63 228 0.0 0.0 0.00 0.00 0.00 87 1011.0
20260904070821 64 228 0.0 0.0 0.00 0.00 0.00 87 1011.1
20260904070338 64 228 0.0 0.0 0.00 0.00 0.00 87 1011.0
20260904065839 64 228 0.0 0.0 0.00 0.00 0.00 87 1011.0
20260904065337 64 228 0.0 0.0 0.00 0.00 0.00 86 1010.9
20260904064837 64 228 0.0 0.0 0.00 0.00 0.00 86 1011.1
20260904064334 64 228 0.0 0.0 0.00 0.00 0.00 86 1011.1
20260904063853 64 226 0.0 0.0 0.00 0.00 0.00 86 1011.1
20260904063331 64 226 0.0 0.0 0.00 0.00 0.00 86 1011.0
20260904062850 64 225 0.0 0.0 0.00 0.00 0.00 86 1011.0
20260904062347 64 225 0.0 0.0 0.00 0.00 0.00 86 1010.9
20260904061825 65 225 0.0 0.0 0.00 0.00 0.00 86 1010.9
20260904061323 65 225 0.0 0.0 0.00 0.00 0.00 86 1010.9
20260904060823 65 225 0.0 0.0 0.00 0.00 0.00 86 1011.0
20260904060322 65 225 0.0 0.0 0.00 0.00 0.00 85 1011.0
20260904055838 65 225 0.0 0.0 0.00 0.00 0.00 84 1011.0
20260904055337 66 225 0.0 0.0 0.00 0.00 0.00 85 1010.9
20260904054835 66 226 0.0 0.0 0.00 0.00 0.00 84 1010.9
20260904054332 66 225 0.0 0.0 0.00 0.00 0.00 83 1011.0
20260904053836 66 226 0.0 0.0 0.00 0.00 0.00 82 1011.0
20260904053335 66 226 0.0 0.0 0.00 0.00 0.00 82 1011.0
20260904052835 67 225 0.0 0.0 0.00 0.00 0.00 82 1011.1
20260904052355 67 226 0.0 0.0 0.00 0.00 0.00 81 1011.0
20260904051834 67 225 0.0 0.0 0.00 0.00 0.00 81 1011.0
20260904051332 67 226 0.0 0.0 0.00 0.00 0.00 80 1010.9
20260904050833 67 225 0.0 0.0 0.00 0.00 0.00 79 1010.9
20260904050353 67 226 0.0 0.0 0.00 0.00 0.00 79 1010.9
20260904045829 68 225 0.0 0.0 0.00 0.00 0.00 78 1010.9
20260904045329 68 225 0.0 0.0 0.00 0.00 0.00 78 1010.9